Regional Weather Roundup
Issued by NWS

Home | Current Version | Previous Version | Text Only | Print | Product List | Glossary On
Versions: 1 2 3 4 5 6 7 8 9 10 11 12 13 14 15 16 17 18 19 20 21 22 23 24 25 26 27 28 29 30 31 32 33 34 35 36 37 38 39 40 41 42 43 44 45 46 47 48 49 50
000
ASUS42 KFFC 060203
RWRGA
WEATHER ROUNDUP FOR GEORGIA
NATIONAL WEATHER SERVICE PEACHTREE CITY GA
900 PM EST THU MAR 05 2015

NOTE: "FAIR" INDICATES FEW OR NO CLOUDS BELOW 12,000 FEET WITH NO
SIGNIFICANT WEATHER AND/OR OBSTRUCTIONS TO VISIBILITY.

* = USE WITH CAUTION. THE STATIONS MARKED WITH AN ASTERISK MAY NOT
REPORT WEATHER SUCH AS PRECIPITATION, FOG, OR THUNDER AND ARE NOT
QUALITY CONTROLLED BY NWS.

THE REMARK "TC" DENOTES TEMPERATURE READING IN DEGREES CELSIUS.

GAZ001>058-060300-
NORTH GEORGIA

CITY           SKY/WX    TMP DP  RH WIND       PRES   REMARKS
ATLANTA        CLOUDY    33  26  75 NW15G24   30.27R WCI  23
ATHENS         CLOUDY    41  32  70 NW12      30.21R
CHAMBLEE       CLOUDY    31  26  82 NW14G20   30.26R WCI  21
PEACHTREE CITY CLOUDY    35  27  72 N13G24    30.27R WCI  26
ROME           CLOUDY    30  22  72 N15G25    30.37R WCI  19
WEST ATLANTA   CLOUDY    32  25  75 NW9G21    30.29R WCI  24
GAINESVILLE    CLOUDY    37  28  70 NW8       30.23R WCI  31
CARTERSVILLE   CLOUDY    30  23  75 N9        30.34R WCI  22


CITY           SKY/WX    TMP DP  RH WIND       PRES   REMARKS
DALTON*        CLOUDY    28  25  86 N16G23    30.36R WCI  17
LAWRENCEVILLE* CLEAR     34  25  69 SW7       30.22R WCI  28
MARIETTA       CLOUDY    31  26  84 NW13      30.28R WCI  21
KENNESAW*      CLOUDY    30  23  74 NW10G24   30.30R WCI  21
$$

GAZ059>098-102>109-060300-
CENTRAL GEORGIA

CITY           SKY/WX    TMP DP  RH WIND       PRES   REMARKS
AUGUSTA-BUSH   CLOUDY    53  45  74 NW12      30.17R
AUGUSTA-DANIEL CLOUDY    53  43  68 NW14      30.17R
COLUMBUS       PTCLDY    37  28  70 N10G23    30.28R WCI  30
MACON          CLOUDY    42  33  70 NW17G23   30.23R
ROBINS AFB     CLOUDY    44  35  71 NW13      30.18R


CITY           SKY/WX    TMP DP  RH WIND       PRES   REMARKS
LAGRANGE*      MOCLDY    38  32  79 N12G18    30.29S WCI  30
SYLVANIA*      RAIN      58  56  94 NW18G24   30.14R
MILLEDGEVILLE* MOCLDY    43  36  75 N8        30.22S
$$

GAZ099>101-110>166-060300-
SOUTH GEORGIA

CITY           SKY/WX    TMP DP  RH WIND       PRES   REMARKS
SAVANNAH       CLOUDY    63  59  87 W7        30.10R
VALDOSTA       CLOUDY    59  57  93 VRB6      30.16R
ALMA           CLOUDY    59  55  87 NW13      30.15R
ST SIMONS      LGT RAIN  65  63  93 W3        30.10R
FT STEWART     CLOUDY    63  61  94 NW6       30.10R
ALBANY         CLOUDY    48  43  82 NW10      30.26R
HUNTER AFB     DRIZZLE   63  63 100 W8        30.08R
MOODY AFB      CLOUDY    59  56  89 NW10      30.15R
BRUNSWICK      CLOUDY    64  61  88 CALM      30.11S


CITY           SKY/WX    TMP DP  RH WIND       PRES   REMARKS
BAINBRIDGE*    CLOUDY    50  45  81 NW13      30.25R
MOULTRIE*      CLOUDY    54  52  94 NW10G18   30.21R
VIDALIA*       CLOUDY    54  50  87 NW18G26   30.17R
WAYCROSS*      RAIN      65  64  95 NW12      30.14R
DOUGLAS*       CLOUDY    61  55  82 N8G16     30.17R
$$


USA.gov is the U.S. government's official web portal to all federal, state and local government web resources and services.